Location: Dead Woman Crossing
(43.5369°N, 106.3228°W)
Time: 16:44:57
(UTC+00:00)

QB50P2 - Pass Details

Date: 30 June 2022
Orbit: 590 x 605 km, 97.9° (Epoch: 18 August)

Event Time Altitude Azimuth Distance (km) Brightness Sun altitude
Rises 09:33:51 0° 359° (N) 2,860 ? -15.5°
Reaches altitude 10° 09:36:26 10° 343° (NNW) 1,954 ? -15.2°
Maximum altitude 09:39:36 21° 294° (WNW) 1,375 ? -14.9°
Enters shadow 09:41:33 16° 259° (W) 1,618 ? -14.7°
